Weather History for Marianna, FL

Change the Weather History Date:

Saturday, January 5, 2013

  Actual Average Record
Temperature  
Mean Temperature 46 °F 50 °F  
Max Temperature 56 °F 61 °F 80 °F (2004)
Min Temperature 36 °F 38 °F 19 °F (1999)
Degree Days  
Heating Degree Days 19    
Month to date heating degree days 63  
Since 1 July heating degree days 554  
Cooling Degree Days 0    
Month to date cooling degree days 0  
Year to date cooling degree days 0  
Moisture  
Dew Point 35 °F    
Average Humidity 66    
Maximum Humidity 93    
Minimum Humidity 38    
Precipitation  
Precipitation 0.08 in 0.18 in 1.75 in (2007)
Month to date precipitation 0.43 0.87  
Year to date precipitation 0.43 0.87  
Sea Level Pressure  
Sea Level Pressure 30.32 in    
Wind  
Wind Speed 4 mph (NE)    
Max Wind Speed 12 mph    
Max Gust Speed 13 mph    
Visibility 10 miles    
Events Rain    
T = Trace of Precipitation, MM = Missing Value Source: NWS Daily Summary

Daily Weather History Graph

Daily Weather History Graph

Search for Another Location

Airport:

Trip Planner

Search our weather history database for the weather conditions in past years. The results will help you decide how hot, cold, wet, or windy it might be!

Date:

Astronomy

Jan. 05, 2013 Rise Set
Actual Time 6:39 AM CST 4:53 PM CST
Civil Twilight 6:12 AM CST 5:19 PM CST
Nautical Twilight 5:42 AM CST 5:49 PM CST
Astronomical Twilight 5:13 AM CST 6:19 PM CST
Moon No Moon Rise 11:30 AM CST (1/5)
Length of Visible Light 11h 06m
Length of Day
10h 14m
Last Quarter, 44% of the Moon is Illuminated
Jan 5
Last Quarter
Jan 11
New
Jan 18
First Quarter
Jan 26
Full
Feb 3
Last Quarter

Hourly Weather History & Observations

Time (CST) Temp. Windchill Dew Point Humidity Pressure Visibility Wind Dir Wind Speed Gust Speed Precip Events Conditions
1:53 AM 44.1 °F 42.5 °F 32.0 °F 63% 30.34 in 10.0 mi NE 3.5 mph - N/A   Clear
2:53 AM 42.1 °F 40.2 °F 33.1 °F 70% 30.33 in 10.0 mi NE 3.5 mph - N/A   Clear
3:53 AM 41.0 °F 36.4 °F 32.0 °F 70% 30.33 in 10.0 mi NNE 6.9 mph - N/A   Clear
4:53 AM 39.9 °F - 30.9 °F 70% 30.35 in 10.0 mi Calm Calm - N/A   Clear
5:53 AM 37.9 °F - 32.0 °F 79% 30.35 in 10.0 mi Calm Calm - N/A   Clear
6:53 AM 36.0 °F - 33.1 °F 89% 30.37 in 10.0 mi Calm Calm - N/A   Clear
7:53 AM 41.0 °F 38.0 °F 32.0 °F 70% 30.38 in 10.0 mi ENE 4.6 mph - N/A   Clear
8:53 AM 44.1 °F 40.8 °F 32.0 °F 63% 30.39 in 10.0 mi NE 5.8 mph - N/A   Clear
9:53 AM 48.0 °F - 30.0 °F 50% 30.38 in 10.0 mi ENE 8.1 mph - N/A   Clear
10:53 AM 51.1 °F - 28.9 °F 43% 30.35 in 10.0 mi ENE 6.9 mph - N/A   Clear
11:53 AM 52.0 °F - 30.0 °F 43% 30.32 in 10.0 mi ENE 5.8 mph - N/A   Clear
12:53 PM 53.1 °F - 30.0 °F 41% 30.30 in 10.0 mi NE 6.9 mph - N/A   Clear
1:53 PM 55.0 °F - 30.9 °F 40% 30.27 in 10.0 mi NNE 5.8 mph - N/A   Clear
2:53 PM 54.0 °F - 32.0 °F 43% 30.28 in 10.0 mi NNE 4.6 mph - N/A   Clear
3:53 PM 53.1 °F - 35.1 °F 50% 30.30 in 10.0 mi NNW 3.5 mph - N/A   Clear
4:53 PM 46.9 °F - 42.1 °F 83% 30.30 in 9.0 mi North 6.9 mph - 0.03 in Rain Rain
5:53 PM 46.9 °F - 43.0 °F 86% 30.32 in 10.0 mi Calm Calm - 0.04 in   Scattered Clouds
6:53 PM 46.9 °F - 45.0 °F 93% 30.35 in 10.0 mi Calm Calm - N/A   Scattered Clouds
7:53 PM 46.9 °F - 43.0 °F 86% 30.32 in 10.0 mi Calm Calm - N/A   Mostly Cloudy
8:53 PM 46.9 °F - 43.0 °F 86% 30.32 in 10.0 mi NNE 4.6 mph - 0.00 in Rain Light Rain
9:53 PM 46.9 °F - 42.1 °F 83% 30.30 in 10.0 mi East 6.9 mph - 0.01 in   Mostly Cloudy
10:53 PM 46.9 °F - 39.9 °F 77% 30.26 in 10.0 mi ESE 8.1 mph - N/A   Mostly Cloudy
11:53 PM 46.9 °F - 39.9 °F 77% 30.22 in 10.0 mi ESE 4.6 mph - N/A   Partly Cloudy